Date String (YYYY-MM-DD hh:mm:ss) UTC,Instrument flags,absolute air pressure of the measurement (hPa),sample flow rate (lpm),inlet stack bypass flow (lpm),air temperature of the measurement (°C),ambient temperature measured by the external sensor (°C),aerosol sample conditioner tube jacket temperature (°C),OPC LED temperature (°C),internal box temperature (°C),relative humidity of the measurement (%),span deviation,mass concentration of particles derived from Lorenz-Mie calculation of OPC scattering (μg/m³),mass concentration of particles derived from Lorenz-Mie calculation of OPC scattering (μg/m³),mass concentration of particles derived from Lorenz-Mie calculation of OPC scattering (μg/m³)
DateTimeUTC,F1_M11,P_M11,Q1_M11,Q2_M11,T1_M11,T2_M11,T3_M11,T4_M11,T5_M11,U1_M11,ZSPAN_M11,X0_M11,X2_M11,X1_M11
2024-01-12 03:00:00,SystemResetWarning,0819.8,5.01,000.00,019.0,018.4,000.0,027.3,020.7,6.9,0000.0,0011.80,0004.44,0003.53
2024-01-12 03:01:00,SystemResetWarning,0819.8,5.01,000.00,019.1,018.9,000.0,027.3,020.7,6.9,0000.0,0011.35,0004.46,0003.52
2024-01-12 03:02:00,SystemResetWarning,0820.0,4.99,000.00,019.1,018.8,000.0,027.3,020.3,6.9,0000.0,0011.20,0004.43,0003.50
2024-01-12 03:03:00,SystemResetWarning,0820.1,4.99,000.00,019.0,018.6,000.0,027.3,020.0,6.9,0000.0,0011.60,0004.39,0003.49
2024-01-12 03:04:00,SystemResetWarning,0820.0,5.01,000.00,019.0,018.4,000.0,027.3,020.0,6.9,0000.0,0011.74,0004.41,0003.47
2024-01-12 03:05:00,SystemResetWarning,0819.7,5.01,000.00,019.0,018.2,000.0,027.3,020.0,6.9,0000.0,0011.72,0004.38,0003.45
2024-01-12 03:06:00,SystemResetWarning,0819.9,4.99,000.00,018.9,018.0,000.0,027.3,020.0,6.9,0000.0,0012.47,0004.36,0003.44
2024-01-12 03:07:00,SystemResetWarning,0820.0,4.99,000.00,018.9,017.9,000.0,027.3,020.0,6.9,0000.0,0012.26,0004.33,0003.45
2024-01-12 03:08:00,SystemResetWarning,0820.0,4.99,000.00,018.9,017.8,000.0,027.3,020.0,6.9,0000.0,0011.45,0004.32,0003.44
2024-01-12 03:09:00,SystemResetWarning,0820.0,5.01,000.00,018.9,017.7,000.0,027.3,020.0,7.0,0000.0,0011.15,0004.30,0003.44
2024-01-12 03:10:00,SystemResetWarning,0820.1,5.01,000.00,018.9,017.7,000.0,027.4,020.0,7.0,0000.0,0010.37,0004.29,0003.44
2024-01-12 03:11:00,SystemResetWarning,0819.8,5.00,000.00,018.9,017.7,000.0,027.3,020.1,7.0,0000.0,0010.47,0004.34,0003.44
2024-01-12 03:12:00,SystemResetWarning,0819.7,5.00,000.00,018.9,018.2,000.0,027.3,020.6,7.0,0000.0,0010.49,0004.34,0003.44
2024-01-12 03:13:00,SystemResetWarning,0819.9,5.00,000.00,019.1,018.9,000.0,027.3,020.8,6.9,0000.0,0010.15,0004.33,0003.44
2024-01-12 03:14:00,SystemResetWarning,0820.0,4.99,000.00,019.1,018.8,000.0,027.3,020.4,6.9,0000.0,0010.21,0004.36,0003.45
2024-01-12 03:15:00,SystemResetWarning,0819.6,4.99,000.00,019.0,018.6,000.0,027.3,020.1,7.0,0000.0,0010.09,0004.32,0003.45
2024-01-12 03:16:00,SystemResetWarning,0819.7,5.00,000.00,019.0,018.3,000.0,027.3,020.0,7.0,0000.0,0010.12,0004.35,0003.48
2024-01-12 03:17:00,SystemResetWarning,0820.0,5.00,000.00,018.9,018.1,000.0,027.3,020.0,7.0,0000.0,0009.70,0004.34,0003.48
2024-01-12 03:18:00,SystemResetWarning,0819.9,5.00,000.00,018.9,017.9,000.0,027.4,020.0,7.0,0000.0,0009.74,0004.37,0003.48
2024-01-12 03:19:00,SystemResetWarning,0819.9,5.01,000.00,018.9,017.8,000.0,027.4,020.0,7.0,0000.0,0009.84,0004.40,0003.49
2024-01-12 03:20:00,SystemResetWarning,0820.1,5.01,000.00,018.9,017.7,000.0,027.4,020.0,7.0,0000.0,0010.17,0004.40,0003.50
2024-01-12 03:21:00,SystemResetWarning,0819.9,5.01,000.00,018.9,017.7,000.0,027.4,020.0,7.1,0000.0,0010.77,0004.38,0003.51
2024-01-12 03:22:00,SystemResetWarning,0820.1,5.00,000.00,018.9,017.8,000.0,027.3,020.3,7.1,0000.0,0011.67,0004.36,0003.52
2024-01-12 03:23:00,SystemResetWarning,0820.2,4.99,000.00,019.0,018.5,000.0,027.3,020.7,7.1,0000.0,0011.83,0004.37,0003.54
2024-01-12 03:24:00,SystemResetWarning,0820.2,4.99,000.00,019.1,018.9,000.0,027.3,020.7,7.0,0000.0,0012.63,0004.40,0003.55
2024-01-12 03:25:00,SystemResetWarning,0819.9,4.99,000.00,019.1,018.7,000.0,027.3,020.2,7.1,0000.0,0013.40,0004.44,0003.57
2024-01-12 03:26:00,SystemResetWarning,0819.9,4.99,000.00,019.0,018.4,000.0,027.3,020.0,7.1,0002.0,0013.71,0004.47,0003.60
2024-01-12 03:27:00,SystemResetWarning,0819.9,5.01,000.00,019.0,018.2,000.0,027.3,020.0,7.2,0003.6,0013.70,0004.42,0003.59
2024-01-12 03:28:00,SystemResetWarning,0820.0,5.00,000.00,018.9,018.0,000.0,027.3,020.0,7.2,0003.9,0013.75,0004.44,0003.62
2024-01-12 03:29:00,SystemResetWarning,0820.0,5.00,000.00,018.9,017.8,000.0,027.4,020.0,7.2,0000.4,0014.15,0004.44,0003.63
2024-01-12 03:30:00,SystemResetWarning,0819.8,5.01,000.00,018.9,017.7,000.0,027.4,020.0,7.2,0000.7,0014.21,0004.48,0003.65
2024-01-12 03:31:00,SystemResetWarning,0820.0,5.00,000.00,018.8,017.6,000.0,027.4,020.1,7.3,0002.6,0014.47,0004.55,0003.66
2024-01-12 03:32:00,SystemResetWarning,0820.0,5.02,000.00,018.9,018.1,000.0,027.3,020.5,7.2,0003.8,0014.14,0004.59,0003.67
2024-01-12 03:33:00,SystemResetWarning,0819.7,5.01,000.00,019.0,018.8,000.0,027.3,020.8,7.2,0001.7,0013.53,0004.61,0003.68
2024-01-12 03:34:00,SystemResetWarning,0819.8,5.00,000.00,019.1,018.9,000.0,027.3,020.5,7.2,0003.5,0013.67,0004.60,0003.68
2024-01-12 03:35:00,SystemResetWarning,0820.1,4.99,000.00,019.1,018.7,000.0,027.3,020.1,7.2,0003.5,0013.23,0004.60,0003.67
2024-01-12 03:36:00,SystemResetWarning,0819.8,5.01,000.00,019.0,018.4,000.0,027.3,020.0,7.2,0003.3,0011.89,0004.56,0003.64
2024-01-12 03:37:00,SystemResetWarning,0819.6,5.00,000.00,019.0,018.2,000.0,027.3,020.0,7.2,0000.0,0011.68,0004.59,0003.63
2024-01-12 03:38:00,SystemResetWarning,0819.8,5.00,000.00,018.9,018.1,000.0,027.3,020.0,7.2,0000.0,0012.56,0004.64,0003.62
2024-01-12 03:39:00,SystemResetWarning,0819.5,5.00,000.00,018.9,017.9,000.0,027.3,020.0,7.2,0000.0,0012.38,0004.63,0003.60
2024-01-12 03:40:00,SystemResetWarning,0819.7,4.99,000.00,018.9,017.8,000.0,027.3,020.0,7.2,0000.0,0012.14,0004.63,0003.58
2024-01-12 03:41:00,SystemResetWarning,0819.8,4.99,000.00,018.9,017.7,000.0,027.4,020.0,7.2,0000.0,0013.03,0004.54,0003.56
2024-01-12 03:42:00,SystemResetWarning,0819.8,5.00,000.00,018.8,017.6,000.0,027.4,020.0,7.2,0000.0,0012.85,0004.46,0003.54
2024-01-12 03:43:00,SystemResetWarning,0819.7,5.02,000.00,018.9,017.9,000.0,027.3,020.4,7.2,0000.0,0013.00,0004.52,0003.52
2024-01-12 03:44:00,SystemResetWarning,0819.8,5.00,000.00,019.0,018.7,000.0,027.3,020.8,7.2,0000.0,0013.34,0004.52,0003.49
2024-01-12 03:45:00,SystemResetWarning,0820.1,4.99,000.00,019.1,019.0,000.0,027.3,020.6,7.1,0000.0,0013.11,0004.50,0003.47
2024-01-12 03:46:00,SystemResetWarning,0819.9,4.99,000.00,019.1,018.8,000.0,027.3,020.3,7.1,0000.0,0013.85,0004.46,0003.46
2024-01-12 03:47:00,SystemResetWarning,0819.8,4.99,000.00,019.0,018.6,000.0,027.3,020.0,7.1,0000.0,0015.06,0004.46,0003.46
2024-01-12 03:48:00,SystemResetWarning,0819.8,5.01,000.00,019.0,018.3,000.0,027.3,020.0,7.1,0000.0,0016.25,0004.46,0003.46
2024-01-12 03:49:00,SystemResetWarning,0819.8,5.01,000.00,019.0,018.2,000.0,027.3,020.0,7.1,0000.0,0016.11,0004.42,0003.45
2024-01-12 03:50:00,SystemResetWarning,0819.8,5.01,000.00,018.9,018.1,000.0,027.4,020.0,7.1,0000.0,0016.88,0004.43,0003.44
2024-01-12 03:51:00,SystemResetWarning,0819.7,4.99,000.00,018.9,018.0,000.0,027.4,020.0,7.1,0000.0,0017.37,0004.41,0003.43
2024-01-12 03:52:00,SystemResetWarning,0819.8,4.99,000.00,018.9,017.8,000.0,027.4,020.0,7.1,0000.0,0017.04,0004.43,0003.43
2024-01-12 03:53:00,SystemResetWarning,0819.8,4.99,000.00,018.8,017.7,000.0,027.4,020.0,7.1,0000.0,0016.34,0004.45,0003.43
2024-01-12 03:54:00,SystemResetWarning,0820.1,5.01,000.00,018.9,017.8,000.0,027.3,020.3,7.1,0000.0,0016.31,0004.43,0003.44
2024-01-12 03:55:00,SystemResetWarning,0819.9,5.01,000.00,019.0,018.6,000.0,027.3,020.7,7.1,0000.0,0015.73,0004.42,0003.45
2024-01-12 03:56:00,SystemResetWarning,0819.9,4.99,000.00,019.1,019.0,000.0,027.3,020.7,7.1,0000.0,0015.88,0004.43,0003.46
2024-01-12 03:57:00,SystemResetWarning,0819.8,4.99,000.00,019.1,018.9,000.0,027.3,020.3,7.1,0000.0,0014.97,0004.43,0003.48
2024-01-12 03:58:00,SystemResetWarning,0819.8,5.00,000.00,019.0,018.7,000.0,027.3,020.0,7.1,0000.0,0014.21,0004.42,0003.49
2024-01-12 03:59:00,SystemResetWarning,0819.7,5.01,000.00,019.0,018.5,000.0,027.3,020.0,7.1,0000.0,0013.54,0004.43,0003.51
